Regional Weather Roundup
Issued by NWS Green Bay, WI

Home | Current Version | Previous Version | Text Only | Print | Product List | Glossary On
Versions: 1 2 3 4 5 6 7 8 9 10 11 12 13 14 15 16 17 18 19 20 21 22 23 24 25 26 27 28 29 30 31 32 33 34 35 36 37 38 39 40 41 42 43 44 45 46 47 48 49 50
000
ASUS43 KGRB 301011
RWRGRB

NORTH-CENTRAL AND NORTHEAST WISCONSIN REGIONAL WEATHER ROUNDUP
NATIONAL WEATHER SERVICE GREEN BAY WI
500 AM CDT TUE JUN 30 2015

WIZ005-009-010>012-018-019-301100-
NORTH CENTRAL WISCONSIN

CITY           SKY/WX    TMP DP  RH WIND       PRES   REMARKS
IRONWOOD       CLOUDY    54  52  94 NE9       29.87R
MANITOWISH WTR CLOUDY    54  54 100 NE7       29.87R
ARBOR VITAE    CLOUDY    57  55  92 N12       29.86R
EAGLE RIVER    CLOUDY    55  55  99 N9        29.85R FOG
LAND O LAKES   CLOUDY    53  53  99 N12       29.87R FOG
RHINELANDER    MOCLDY    58  56  93 N3        29.85R
PHILLIPS       CLOUDY    58  57  97 N6        29.85S
ANTIGO         CLOUDY    58  57  97 N10       29.82R
TOMAHAWK       PTCLDY    56  55  96 NW3       29.85R
MERRILL        CLOUDY    59  58  97 N3        29.84R
$$

WIZ013-073-301100-
NORTHEAST WISCONSIN

CITY           SKY/WX    TMP DP  RH WIND       PRES   REMARKS
IRON MOUNTAIN  CLOUDY    60  57  89 NW6       29.79R
MARINETTE      CLOUDY    61  57  88 N7        29.77R
OCONTO         CLOUDY    62  62 100 N7        29.76S
$$

WIZ017-030-035>037-045-301100-
CENTRAL WISCONSIN

CITY           SKY/WX    TMP DP  RH WIND       PRES   REMARKS
MEDFORD        PTCLDY    57  56  96 N6        29.84R
WAUSAU         PTCLDY    61  58  90 N7        29.81R
MOSINEE        NOT AVBL
MARSHFIELD     CLOUDY    61  57  87 N9        29.82R FOG
WISC RAPIDS    CLOUDY    60  57  89 N7        29.82R
STEVENS POINT  CLOUDY    58  58  97 N6        29.82R
WAUPACA        CLEAR     59  59  99 NW5       29.79R FOG
SHAWANO        CLOUDY    60  58  94 NW3       29.79R
CLINTONVILLE   MOCLDY   N/A N/A N/A N3        29.78S
$$

WIZ038-039-048-051-301100-
FOX VALLEY

CITY           SKY/WX    TMP DP  RH WIND       PRES   REMARKS
NWS GREEN BAY  PTCLDY    62  60  93 N8        29.76S
APPLETON       MOCLDY    57  57 100 NW6       29.78R
OSHKOSH        CLOUDY    61  58  90 W6        29.77R FOG
FOND DU LAC    PTCLDY    59  57  93 NW9       29.77S
$$

WIZ022-050-052-301100-
EAST CENTRAL WISCONSIN

CITY           SKY/WX    TMP DP  RH WIND       PRES   REMARKS
STURGEON BAY   MOCLDY    59  55  88 E3        29.79R
MANITOWOC      CLOUDY    63  61  93 MISG      29.75S FOG
SHEBOYGAN      MOCLDY    58  57  97 CALM      29.75S FOG
$$

LMZ563-521-522-541>543-301100-
LAKESHORE

STATION/POSITION TIME  TEMP    WIND        PRES    VSBY  WAVE
                       AIR SEA DIR/SP/G                  HT/PER
                 (UTC) (F)     (DEG/KT/KT) (MB)    (MI)  (FT/S)
SHEBOYGAN LKSHOR 1000   62     260/  2/  3 1007.7R
KEWAUNEE LKSHORE 0900   58     140/  4/  8 1006.7F
NORTHPORT PIER   0900   60     130/  1/  2 1008.1R
N MID LAKE BUOY  0950   56 54   CALM  /  2 1008.2S         1
S GREEN BAY BUOY 0900   66 71   10/ 14/ 16 1008.6
CHAMBERS ISLAND  0900   64      40/  2/  4 1007.8S
MENOMINEE LKSHOR 0900   63     350/ 11/ 12 1008.5R
$$


USA.gov is the U.S. government's official web portal to all federal, state and local government web resources and services.